Regional Weather Roundup
Issued by NWS

Home | Current Version | Previous Version | Text Only | Print | Product List | Glossary On
Versions: 1 2 3 4 5 6 7 8 9 10 11 12 13 14 15 16 17 18 19 20 21 22 23 24 25 26 27 28 29 30 31 32 33 34 35 36 37 38 39 40 41 42 43 44 45 46 47 48 49 50
000
ASUS43 KDTX 240901
RWRMI
MICHIGAN HOURLY REGIONAL WEATHER ROUNDUP
NATIONAL WEATHER SERVICE DETROIT/PONTIAC MI
500 AM EDT THU JUL 24 2014

NOTE: "FAIR" INDICATES FEW OR NO CLOUDS BELOW 12,000 FEET WITH NO
SIGNIFICANT WEATHER AND/OR OBSTRUCTION TO VISIBILITY.

MIZ047>049-052>055-059>063-066>070-074>076-081>083-241000-
SOUTHEAST LOWER MICHIGAN

CITY           SKY/WX    TMP DP  RH WIND       PRES   REMARKS
ADRIAN         CLEAR     55  50  83 N5        30.09R
ALMA           CLEAR     52  48  88 CALM      30.13S
ANN ARBOR      PTCLDY    58  49  72 NE9       30.08S
BAD AXE        CLEAR     53  51  94 CALM      30.11R
CARO           CLEAR     56  54  95 N3        30.10S
DETROIT CITY   MOCLDY    61  51  70 N8        30.07S
DETROIT        PTCLDY    58  49  72 N7        30.08R
FLINT          CLEAR     55  50  83 CALM      30.11R
GROSSE ILE     PTCLDY    61  52  72 N6        30.06R
HILLSDALE      CLEAR     56  54  92 CALM      30.09S
HOWELL         CLEAR     54  51  90 CALM      30.10S

CITY           SKY/WX    TMP DP  RH WIND       PRES   REMARKS
JACKSON        CLEAR     54  52  93 CALM      30.10S
LAMBERTVILLE   PTCLDY    54  52  94 CALM      30.08R
LANSING        PTCLDY    56  53  90 N6        30.12R
LAPEER         FAIR      51  49  93 CALM      30.10S
MASON          CLEAR     52  51  97 CALM      30.11S
MONROE         PTCLDY    54  50  87 CALM      30.06R
MT. CLEMENS    MOCLDY    56  51  85 N9        30.07R
PONTIAC        PTCLDY    57  50  77 N8        30.08S
PORT HOPE        N/A     61  55  81 VRB3      30.09S
PORT HURON     MOCLDY    52  52 100 NW3       30.08R
TRI CITIES     CLEAR     54  48  80 N7        30.13R
TROY           MOCLDY    59  51  75 N7        30.09R
SAGINAW HB     CLEAR     54  52  94 NW5       30.11R
$$
MIZ043>046-050>051-056>058-064>065-071>073-077>080-241000-
SOUTHWEST LOWER MICHIGAN

CITY           SKY/WX    TMP DP  RH WIND       PRES   REMARKS
BATTLE CREEK   MOCLDY    58  54  86 N5        30.11S
BENTON HARBOR  MOCLDY    55  52  89 N3        30.11F
BIG RAPIDS     CLEAR     49  49  99 W3        30.14S
COLDWATER      CLEAR     58  55  91 CALM      30.09F
FREMONT        FAIR      50  49  97 N3        30.15R
HOLLAND        PTCLDY    58  51  78 NE3       30.13S
GRAND RAPIDS   MOCLDY    57  52  83 NE5       30.13S
IONIA          FAIR      54  52  93 N6        30.12R
KALAMAZOO      CLOUDY    58  54  86 N6        30.11S
LUDINGTON      FOG       49  48  97 CALM      30.17R VSB 1/2
MARSHALL       PTCLDY    55  54  96 W5        30.10S
MOUNT PLEASANT CLEAR     52  49  89 CALM      30.13R
MUSKEGON       CLEAR     56  49  77 N6        30.14R
SOUTH HAVEN    PTCLDY    56  54  92 NE5       30.12S
$$
MIZ016>042-241000-
NORTHERN LOWER MICHIGAN

CITY           SKY/WX    TMP DP  RH WIND       PRES   REMARKS
ALPENA         CLEAR     50  48  93 CALM      30.13S
BEAVER ISLAND  CLEAR     44  44 100 CALM      30.16S
CADILLAC       CLEAR     43  43 100 CALM      30.16R
CHARLEVOIX     CLEAR     58  51  76 N7        30.18S
FRANKFORT      CLEAR     45  42  89 CALM      30.17R
GAYLORD        CLEAR     43  40  89 CALM      30.15S
GRAYLING       FOG       42  42 100 CALM      30.15S VSB 1/2
HARBOR SPRINGS CLEAR     52  47  85 NW3       30.15S
HOUGHTON LAKE  CLEAR     47  45  93 NE5       30.14F
MANISTEE       CLEAR     46  43  87 CALM      30.17R
OSCODA         CLOUDY    57  49  75 N6        30.11S
PELLSTON       CLEAR     45  44  97 NW5       30.16S
ROGERS CITY    CLEAR     51  50  96 W3        30.14S
TRAVERSE CITY  CLEAR     48  46  93 CALM      30.15S
$$
MIZ007>008-015-241000-
EASTERN UPPER MICHIGAN

CITY           SKY/WX    TMP DP  RH WIND       PRES   REMARKS
KINROSS        CLEAR     45  43  93 W5        30.14S
MACKINAC ISLAN CLEAR     52  47  84 W3        30.15R
NEWBERRY       CLEAR     41  40  96 CALM      30.15S
S. S. MARIE    CLEAR     50  46  86 W6        30.13S
MUNISING         N/A     45  41  86 S8        30.15F
$$
MIZ004>006-011>014-085-241000-
CENTRAL UPPER MICHIGAN

CITY           SKY/WX    TMP DP  RH WIND       PRES   REMARKS
MANISTIQUE     CLEAR     46  44  93 CALM      30.15F
ESCANABA       CLEAR     45  41  87 CALM      30.17R
MENOMINEE      CLEAR     50  46  87 CALM      30.17S
SAWYER-GWINN   CLEAR     45  43  93 CALM      30.18S
$$
MIZ001>003-009>011-084-241000-
WESTERN UPPER MICHIGAN

CITY           SKY/WX    TMP DP  RH WIND       PRES   REMARKS
IRON MOUNTAIN  CLEAR     47  43  86 CALM      30.18S
HOUGHTON       CLEAR     52  46  80 NW6       30.15F
COPPER HARBOR    N/A     60  48  64 NW5       30.13S
$$

ABBREVIATIONS USED IN REMARKS
   TC - TEMPERATURE IN CELSIUS
  WCI - WIND CHILL INDEX
   HX - HEAT INDEX
  VSB - VISIBILITY



USA.gov is the U.S. government's official web portal to all federal, state and local government web resources and services.